Location: Rowland
(34.5359°N, 79.2929°W)
Time: 23:40:43
(UTC+00:00)

Explorer 7 - Pass Details

Date: 12 October 2022
Orbit: 481 x 665 km, 50.3° (Epoch: 30 November)

Event Time Altitude Azimuth Distance (km) Brightness Sun altitude
Rises 09:56:04 0° 176° (S) 2,852 10.5 -18.1°
Reaches altitude 10° 09:59:51 10° 144° (SE) 1,998 10.1 -17.4°
Maximum altitude 10:01:26 12° 124° (SE) 1,910 10.3 -17.0°
Drops below altitude 10° 10:03:01 10° 104° (ESE) 2,033 10.9 -16.7°
Sets 10:06:57 0° 72° (ENE) 2,978 12.1 -15.9°
